SIA606 WMKK-WSSS

Flight info

Callsign SIA606
Flight time 0h 39m
Altitude 27000
Route RUSBU2E RUSBU Y511 TOPOR A464 ARAMA DCT TEBUN TEBUN1B
Aircraft A359/H-SDE2E3GHIJ3J4J5LM1ORWXY/LB1D1

Departure

Time 2026-05-06 14:21
Airport Kuala Lumpur International Airport (WMKK)

Arrival

Time 2026-05-06 15:01
Airport Singapore Changi Airport (WSSS)
Time Latitude Longitude Altitude Speed Heading
2026-05-06 14:10 2.72475 101.71529 65 ft 0 kts 237°
2026-05-06 14:14 2.72480 101.71536 56 ft 2 kts 237°
2026-05-06 14:14 2.72488 101.71549 56 ft 2 kts 237°
2026-05-06 14:15 2.72497 101.71563 56 ft 2 kts 236°
2026-05-06 14:15 2.72504 101.71572 56 ft 3 kts 223°
2026-05-06 14:15 2.72524 101.71586 56 ft 3 kts 198°
2026-05-06 14:15 2.72541 101.71589 56 ft 3 kts 179°
2026-05-06 14:16 2.72547 101.71589 56 ft 0 kts 173°
2026-05-06 14:16 2.72521 101.71598 56 ft 11 kts 159°
2026-05-06 14:17 2.72457 101.71612 57 ft 14 kts 188°
2026-05-06 14:17 2.72381 101.71540 56 ft 21 kts 233°
2026-05-06 14:17 2.72283 101.71422 56 ft 2 kts 198°
2026-05-06 14:17 2.72239 101.71432 58 ft 13 kts 153°
2026-05-06 14:18 2.72125 101.71505 58 ft 26 kts 147°
2026-05-06 14:18 2.71943 101.71625 56 ft 37 kts 147°
2026-05-06 14:18 2.71704 101.71782 54 ft 45 kts 146°
2026-05-06 14:18 2.71475 101.71931 58 ft 27 kts 166°
2026-05-06 14:19 2.71373 101.71846 59 ft 19 kts 244°
2026-05-06 14:19 2.71366 101.71799 60 ft 0 kts 285°
2026-05-06 14:20 2.71374 101.71788 55 ft 9 kts 302°
2026-05-06 14:20 2.71484 101.71699 54 ft 36 kts 327°
2026-05-06 14:20 2.71888 101.71432 55 ft 101 kts 326°
2026-05-06 14:21 2.72638 101.70936 59 ft 156 kts 326°
2026-05-06 14:21 2.73636 101.70285 446 ft 173 kts 327°
2026-05-06 14:21 2.74634 101.69616 1037 ft 174 kts 327°
2026-05-06 14:21 2.75678 101.68883 1347 ft 195 kts 323°
2026-05-06 14:22 2.76698 101.67864 1623 ft 217 kts 311°
2026-05-06 14:22 2.77690 101.66678 2106 ft 225 kts 309°
2026-05-06 14:22 2.78715 101.65434 2452 ft 246 kts 309°
2026-05-06 14:22 2.79856 101.64059 2812 ft 265 kts 310°
2026-05-06 14:23 2.81052 101.62630 3483 ft 269 kts 310°
2026-05-06 14:23 2.82262 101.61187 4212 ft 272 kts 310°
2026-05-06 14:23 2.83495 101.59720 4929 ft 276 kts 310°
2026-05-06 14:23 2.84737 101.58243 5645 ft 279 kts 310°
2026-05-06 14:24 2.85989 101.56755 6358 ft 281 kts 310°
2026-05-06 14:24 2.87255 101.55250 7035 ft 285 kts 310°
2026-05-06 14:24 2.88543 101.53725 7727 ft 288 kts 310°
2026-05-06 14:24 2.89846 101.52174 8427 ft 294 kts 310°
2026-05-06 14:25 2.91173 101.50572 8784 ft 312 kts 308°
2026-05-06 14:25 2.92186 101.48608 9169 ft 326 kts 283°
2026-05-06 14:25 2.92213 101.46346 9803 ft 329 kts 256°
2026-05-06 14:25 2.91242 101.44240 10151 ft 342 kts 231°
2026-05-06 14:26 2.89449 101.42638 10497 ft 352 kts 211°
2026-05-06 14:26 2.87296 101.41416 11011 ft 357 kts 204°
2026-05-06 14:26 2.84931 101.40546 11399 ft 367 kts 195°
2026-05-06 14:26 2.82375 101.40134 11629 ft 379 kts 180°
2026-05-06 14:27 2.79745 101.40548 11836 ft 389 kts 159°
2026-05-06 14:27 2.77391 101.41898 12192 ft 394 kts 139°
2026-05-06 14:27 2.75605 101.43980 12664 ft 396 kts 123°
2026-05-06 14:27 2.74136 101.46287 13115 ft 400 kts 121°
2026-05-06 14:28 2.72636 101.48635 13598 ft 402 kts 122°
2026-05-06 14:28 2.71090 101.50982 14027 ft 405 kts 123°
2026-05-06 14:28 2.69515 101.53329 14429 ft 407 kts 123°
2026-05-06 14:28 2.67918 101.55682 14841 ft 409 kts 123°
2026-05-06 14:29 2.66305 101.58045 15249 ft 412 kts 123°
2026-05-06 14:29 2.64683 101.60415 15647 ft 414 kts 123°
2026-05-06 14:29 2.63045 101.62805 16032 ft 416 kts 123°
2026-05-06 14:29 2.61401 101.65200 16423 ft 419 kts 123°
2026-05-06 14:30 2.59748 101.67608 16807 ft 421 kts 123°
2026-05-06 14:30 2.58104 101.70000 17182 ft 423 kts 123°
2026-05-06 14:30 2.56430 101.72438 17572 ft 425 kts 123°
2026-05-06 14:30 2.54748 101.74887 17941 ft 428 kts 123°
2026-05-06 14:31 2.53056 101.77348 18275 ft 430 kts 123°
2026-05-06 14:31 2.51359 101.79818 18592 ft 432 kts 123°
2026-05-06 14:31 2.49646 101.82310 18905 ft 434 kts 123°
2026-05-06 14:31 2.47931 101.84806 19208 ft 436 kts 123°
2026-05-06 14:32 2.46199 101.87326 19387 ft 442 kts 123°
2026-05-06 14:32 2.44445 101.89880 19542 ft 448 kts 123°
2026-05-06 14:32 2.42673 101.92457 19782 ft 451 kts 123°
2026-05-06 14:32 2.40918 101.95010 20044 ft 453 kts 123°
2026-05-06 14:33 2.39128 101.97613 20320 ft 455 kts 123°
2026-05-06 14:33 2.37329 102.00229 20612 ft 457 kts 123°
2026-05-06 14:33 2.35527 102.02851 20861 ft 459 kts 123°
2026-05-06 14:33 2.33711 102.05492 21123 ft 461 kts 123°
2026-05-06 14:34 2.31889 102.08142 21391 ft 464 kts 123°
2026-05-06 14:34 2.30058 102.10804 21662 ft 466 kts 123°
2026-05-06 14:34 2.28219 102.13478 21947 ft 468 kts 123°
2026-05-06 14:34 2.26373 102.16163 22234 ft 470 kts 123°
2026-05-06 14:35 2.24519 102.18858 22512 ft 472 kts 123°
2026-05-06 14:35 2.22651 102.21574 22794 ft 474 kts 123°
2026-05-06 14:35 2.20781 102.24293 23088 ft 476 kts 123°
2026-05-06 14:35 2.18894 102.27036 23379 ft 478 kts 123°
2026-05-06 14:36 2.17028 102.29749 23623 ft 480 kts 123°
2026-05-06 14:36 2.15133 102.32505 23862 ft 482 kts 123°
2026-05-06 14:36 2.13224 102.35279 24108 ft 483 kts 123°
2026-05-06 14:36 2.11317 102.38050 24378 ft 485 kts 123°
2026-05-06 14:37 2.09401 102.40836 24639 ft 487 kts 123°
2026-05-06 14:37 2.07500 102.43599 24838 ft 486 kts 123°
2026-05-06 14:37 2.05593 102.46370 24887 ft 482 kts 123°
2026-05-06 14:37 2.03689 102.49135 24886 ft 482 kts 123°
2026-05-06 14:38 2.01786 102.51902 24884 ft 482 kts 123°
2026-05-06 14:38 1.99829 102.54643 24881 ft 482 kts 125°
2026-05-06 14:38 1.97834 102.57292 24881 ft 482 kts 126°
2026-05-06 14:38 1.95776 102.59968 24882 ft 483 kts 126°
2026-05-06 14:39 1.93725 102.62629 24881 ft 483 kts 126°
2026-05-06 14:39 1.91686 102.65286 24882 ft 483 kts 126°
2026-05-06 14:39 1.89650 102.67960 24878 ft 483 kts 126°
2026-05-06 14:39 1.87622 102.70636 24879 ft 483 kts 126°
2026-05-06 14:40 1.85600 102.73316 24880 ft 483 kts 126°
2026-05-06 14:40 1.83603 102.75968 24874 ft 483 kts 126°
2026-05-06 14:40 1.81582 102.78652 24878 ft 483 kts 126°
2026-05-06 14:40 1.79563 102.81335 24876 ft 483 kts 126°
2026-05-06 14:41 1.77540 102.84021 24874 ft 483 kts 126°
2026-05-06 14:41 1.75517 102.86707 24875 ft 483 kts 126°
2026-05-06 14:41 1.73625 102.89487 24874 ft 482 kts 120°
2026-05-06 14:41 1.71950 102.92385 24874 ft 482 kts 118°
2026-05-06 14:42 1.70354 102.95286 24873 ft 481 kts 117°
2026-05-06 14:42 1.68776 102.98235 24871 ft 481 kts 117°
2026-05-06 14:42 1.67209 103.01199 24871 ft 481 kts 117°
2026-05-06 14:42 1.65647 103.04160 24871 ft 481 kts 117°
2026-05-06 14:43 1.64043 103.07102 24868 ft 482 kts 120°
2026-05-06 14:43 1.62070 103.09824 24872 ft 483 kts 130°
2026-05-06 14:43 1.59744 103.12171 24851 ft 478 kts 135°
2026-05-06 14:43 1.57614 103.14659 24433 ft 467 kts 123°
2026-05-06 14:44 1.56063 103.17484 23892 ft 461 kts 113°
2026-05-06 14:44 1.54803 103.20411 23344 ft 457 kts 112°
2026-05-06 14:44 1.53573 103.23331 22692 ft 453 kts 112°
2026-05-06 14:45 1.51116 103.29087 21427 ft 446 kts 112°
2026-05-06 14:45 1.49896 103.31922 20801 ft 442 kts 112°
2026-05-06 14:45 1.48685 103.34728 20222 ft 438 kts 112°
2026-05-06 14:45 1.47480 103.37517 19630 ft 435 kts 112°
2026-05-06 14:46 1.46380 103.40318 19015 ft 431 kts 105°
2026-05-06 14:46 1.45996 103.43260 18445 ft 427 kts 88°
2026-05-06 14:46 1.46336 103.46180 18133 ft 417 kts 81°
2026-05-06 14:46 1.46782 103.48963 17878 ft 405 kts 81°
2026-05-06 14:47 1.47207 103.51711 17630 ft 393 kts 82°
2026-05-06 14:47 1.47604 103.54381 17398 ft 382 kts 82°
2026-05-06 14:47 1.47980 103.56977 17179 ft 371 kts 82°
2026-05-06 14:47 1.48340 103.59497 16931 ft 362 kts 82°
2026-05-06 14:48 1.48692 103.61977 16442 ft 360 kts 82°
2026-05-06 14:48 1.49040 103.64450 15948 ft 359 kts 82°
2026-05-06 14:48 1.49387 103.66923 15443 ft 358 kts 82°
2026-05-06 14:48 1.49729 103.69355 14963 ft 357 kts 82°
2026-05-06 14:49 1.50072 103.71810 14470 ft 356 kts 82°
2026-05-06 14:49 1.50316 103.74269 14028 ft 354 kts 86°
2026-05-06 14:49 1.50485 103.76735 13378 ft 357 kts 86°
2026-05-06 14:49 1.50660 103.79226 12626 ft 361 kts 86°
2026-05-06 14:50 1.50863 103.81738 11874 ft 365 kts 83°
2026-05-06 14:50 1.51618 103.84157 11168 ft 368 kts 62°
2026-05-06 14:50 1.52992 103.86323 10469 ft 370 kts 56°
2026-05-06 14:50 1.54458 103.88450 9768 ft 372 kts 56°
2026-05-06 14:51 1.55911 103.90598 9024 ft 373 kts 56°
2026-05-06 14:51 1.57357 103.92751 8308 ft 373 kts 56°
2026-05-06 14:51 1.58784 103.94875 7990 ft 361 kts 56°
2026-05-06 14:51 1.60154 103.96917 7745 ft 347 kts 56°
2026-05-06 14:52 1.61461 103.98861 7527 ft 335 kts 56°
2026-05-06 14:52 1.62733 104.00754 7327 ft 322 kts 56°
2026-05-06 14:52 1.63960 104.02580 7139 ft 310 kts 56°
2026-05-06 14:52 1.65147 104.04342 6970 ft 299 kts 56°
2026-05-06 14:53 1.66290 104.06039 6807 ft 289 kts 56°
2026-05-06 14:53 1.67391 104.07676 6659 ft 278 kts 57°
2026-05-06 14:53 1.68174 104.09397 6465 ft 268 kts 79°
2026-05-06 14:53 1.68122 104.11205 6314 ft 257 kts 107°
2026-05-06 14:54 1.67246 104.12695 6169 ft 245 kts 139°
2026-05-06 14:54 1.65765 104.13355 6100 ft 230 kts 176°
2026-05-06 14:54 1.64292 104.12984 5922 ft 221 kts 215°
2026-05-06 14:54 1.63210 104.11917 5751 ft 221 kts 226°
2026-05-06 14:55 1.62152 104.10799 5489 ft 220 kts 226°
2026-05-06 14:55 1.61094 104.09692 5270 ft 219 kts 226°
2026-05-06 14:55 1.60064 104.08614 5127 ft 209 kts 226°
2026-05-06 14:55 1.59081 104.07585 4964 ft 200 kts 226°
2026-05-06 14:56 1.58128 104.06588 4726 ft 197 kts 226°
2026-05-06 14:56 1.57049 104.05758 4413 ft 195 kts 206°
2026-05-06 14:56 1.55780 104.05305 4137 ft 193 kts 195°
2026-05-06 14:56 1.54499 104.04984 3842 ft 192 kts 193°
2026-05-06 14:57 1.53203 104.04688 3571 ft 190 kts 192°
2026-05-06 14:57 1.50911 104.04185 3063 ft 189 kts 192°
2026-05-06 14:57 1.48593 104.03541 2502 ft 188 kts 201°
2026-05-06 14:57 1.47388 104.03047 2214 ft 186 kts 202°
2026-05-06 14:58 1.46169 104.02632 1932 ft 181 kts 202°
2026-05-06 14:58 1.45074 104.02113 1758 ft 167 kts 203°
2026-05-06 14:58 1.44047 104.01674 1572 ft 155 kts 203°
2026-05-06 14:58 1.43098 104.01270 1498 ft 143 kts 202°
2026-05-06 14:59 1.42191 104.00890 1324 ft 141 kts 202°
2026-05-06 14:59 1.41253 104.00492 896 ft 151 kts 202°
2026-05-06 14:59 1.40298 104.00082 659 ft 147 kts 203°
2026-05-06 14:59 1.39365 103.99679 459 ft 146 kts 203°
2026-05-06 15:00 1.38427 103.99273 254 ft 147 kts 204°
2026-05-06 15:00 1.37489 103.98868 98 ft 144 kts 204°
2026-05-06 15:00 1.36584 103.98464 34 ft 143 kts 205°
2026-05-06 15:00 1.35832 103.98142 34 ft 79 kts 202°
2026-05-06 15:01 1.35598 103.98047 37 ft 0 kts 202°
2026-05-06 15:01 1.35594 103.98045 37 ft 4 kts 202°
2026-05-06 15:01 1.35533 103.98018 38 ft 15 kts 204°
2026-05-06 15:01 1.35406 103.97961 38 ft 25 kts 204°
2026-05-06 15:02 1.35224 103.97884 39 ft 32 kts 203°
2026-05-06 15:02 1.35005 103.97790 38 ft 34 kts 201°
2026-05-06 15:02 1.34778 103.97836 38 ft 37 kts 125°
2026-05-06 15:02 1.34699 103.97997 37 ft 40 kts 114°
2026-05-06 15:03 1.34546 103.98361 34 ft 43 kts 114°
2026-05-06 15:03 1.34436 103.98609 30 ft 28 kts 125°
2026-05-06 15:03 1.34350 103.98633 30 ft 14 kts 203°
2026-05-06 15:03 1.34255 103.98594 30 ft 11 kts 203°
2026-05-06 15:04 1.34252 103.98593 30 ft 0 kts 203°